2023/01/03 00:00:00,30.1, 0.6
2023/01/03 00:10:00,30.2, 0.6
2023/01/03 00:20:00,30.6, 0.8
2023/01/03 00:30:00,30.9, 0.8
2023/01/03 00:40:00,30.8, 0.7
2023/01/03 00:50:00,30.8, 0.6
2023/01/03 01:00:00,30.8, 0.8
2023/01/03 01:10:00,30.7, 0.8
2023/01/03 01:20:00,30.8, 0.8
2023/01/03 01:30:00,30.9, 0.7
2023/01/03 01:40:00,31.4, 0.8
2023/01/03 01:50:00,31.8, 0.7
2023/01/03 02:00:00,32.2, 0.7
2023/01/03 02:10:00,32.5, 0.6
2023/01/03 02:20:00,32.5, 0.7
2023/01/03 02:30:00,32.4, 1.0
2023/01/03 02:40:00,32.4, 1.0
2023/01/03 02:50:00,32.5, 0.8
2023/01/03 03:00:00,32.5, 0.8
2023/01/03 03:10:00,33.5, 0.6
2023/01/03 03:20:00,33.6, 0.7
2023/01/03 03:30:00,33.5, 0.7
2023/01/03 03:40:00,33.6, 0.9
2023/01/03 03:50:00,34.0, 0.6
2023/01/03 04:00:00,33.9, 0.6
2023/01/03 04:10:00,33.9, 0.6
2023/01/03 04:20:00,33.8, 0.5
2023/01/03 04:30:00,33.8, 0.6
2023/01/03 04:40:00,33.8, 0.6
2023/01/03 04:50:00,33.7, 0.1
2023/01/03 05:00:00,33.7, 0.1
2023/01/03 05:10:00,33.7, 0.0
2023/01/03 05:20:00,33.7, 0.1
2023/01/03 05:30:00,33.6, 0.0
2023/01/03 05:40:00,33.8, 0.1
2023/01/03 05:50:00,34.7, 0.4
2023/01/03 06:00:00,35.2, 0.3
2023/01/03 06:10:00,35.5, 0.5
2023/01/03 06:20:00,35.4, 0.7
2023/01/03 06:30:00,35.4,-0.1
2023/01/03 06:40:00,35.4,-0.2
2023/01/03 06:50:00,35.4, 0.1
2023/01/03 07:00:00,35.6, 0.0
2023/01/03 07:10:00,36.0, 0.2
2023/01/03 07:20:00,36.1, 0.2
2023/01/03 07:30:00,36.5, 0.4
2023/01/03 07:40:00,36.5, 0.6
2023/01/03 07:50:00,36.4, 0.6
2023/01/03 08:00:00,36.4, 0.6
2023/01/03 08:10:00,36.4, 0.6
2023/01/03 08:20:00,36.5, 0.8
2023/01/03 08:30:00,36.5, 0.8
2023/01/03 08:40:00,36.4, 1.2
2023/01/03 08:50:00,36.3, 1.5
2023/01/03 09:00:00,37.3, 0.9
2023/01/03 09:10:00,38.3, 1.1
2023/01/03 09:20:00,38.1, 1.6
2023/01/03 09:30:00,38.1, 1.2
2023/01/03 09:40:00,38.1, 1.0
2023/01/03 09:50:00,38.3, 1.4
2023/01/03 10:00:00,38.5, 2.4
2023/01/03 10:10:00,38.5, 3.2
2023/01/03 10:20:00,38.4, 3.3
2023/01/03 10:30:00,38.3, 2.9
2023/01/03 10:40:00,38.3, 3.4
2023/01/03 10:50:00,38.3, 5.8
2023/01/03 11:00:00,38.2, 6.0
2023/01/03 11:10:00,38.2, 7.1
2023/01/03 11:20:00,38.1, 7.7
2023/01/03 11:30:00,38.0, 8.0
2023/01/03 11:40:00,38.1, 8.8
2023/01/03 11:50:00,38.1, 9.5
2023/01/03 12:00:00,38.1, 9.8
2023/01/03 12:10:00,38.1, 9.7
2023/01/03 12:20:00,37.8, 9.3
2023/01/03 12:30:00,37.5, 9.6
2023/01/03 12:40:00,37.1, 8.9
2023/01/03 12:50:00,36.5, 8.2
2023/01/03 13:00:00,36.0, 6.3
2023/01/03 13:10:00,35.8, 5.2
2023/01/03 13:20:00,35.6, 4.5
2023/01/03 13:30:00,35.5, 5.8
2023/01/03 13:40:00,35.5, 9.1
2023/01/03 13:50:00,35.2, 7.3
2023/01/03 14:00:00,35.1, 6.1
2023/01/03 14:10:00,34.9, 4.4
2023/01/03 14:20:00,34.9, 3.5
2023/01/03 14:30:00,34.8, 7.4
2023/01/03 14:40:00,34.6, 5.6
2023/01/03 14:50:00,34.6, 4.6
2023/01/03 15:00:00,34.5, 3.7
2023/01/03 15:10:00,34.4,12.4
2023/01/03 15:20:00,34.2, 7.6
2023/01/03 15:30:00,34.2, 5.5
2023/01/03 15:40:00,34.1, 4.2
2023/01/03 15:50:00,34.0, 3.6
2023/01/03 16:00:00,33.9, 2.7
2023/01/03 16:10:00,33.8, 2.1
2023/01/03 16:20:00,34.2, 1.7
2023/01/03 16:30:00,34.3, 1.4
2023/01/03 16:40:00,34.5, 1.0
2023/01/03 16:50:00,34.9, 1.3
2023/01/03 17:00:00,34.4, 1.1
2023/01/03 17:10:00,34.5, 1.1
2023/01/03 17:20:00,35.0, 1.0
2023/01/03 17:30:00,35.3, 0.9
2023/01/03 17:40:00,35.3, 0.8
2023/01/03 17:50:00,35.3, 1.0
2023/01/03 18:00:00,35.5, 0.9
2023/01/03 18:10:00,35.6, 0.9
2023/01/03 18:20:00,36.2, 0.9
2023/01/03 18:30:00,36.1, 1.0
2023/01/03 18:40:00,36.0, 0.6
2023/01/03 18:50:00,36.0, 0.7
2023/01/03 19:00:00,35.9, 0.7
2023/01/03 19:10:00,35.8, 0.6
2023/01/03 19:20:00,35.8, 0.5
2023/01/03 19:30:00,35.7, 0.4
2023/01/03 19:40:00,35.7, 0.2
2023/01/03 19:50:00,35.7,-0.1
2023/01/03 20:00:00,35.7, 0.0
2023/01/03 20:10:00,35.6, 0.5
2023/01/03 20:20:00,35.6, 0.7
2023/01/03 20:30:00,35.5, 0.8
2023/01/03 20:40:00,36.0, 0.6
2023/01/03 20:50:00,36.1, 0.1
2023/01/03 21:00:00,36.1,-0.1
2023/01/03 21:10:00,36.2,-0.2
2023/01/03 21:20:00,36.1,-0.4
2023/01/03 21:30:00,36.0,-0.7
2023/01/03 21:40:00,36.0,-1.1
2023/01/03 21:50:00,35.9,-0.8
2023/01/03 22:00:00,35.8,-0.7
2023/01/03 22:10:00,35.8,-0.4
2023/01/03 22:20:00,35.7, 0.0
2023/01/03 22:30:00,35.7,-0.4
2023/01/03 22:40:00,35.8,-0.8
2023/01/03 22:50:00,35.7,-0.9
2023/01/03 23:00:00,35.6,-0.9
2023/01/03 23:10:00,35.6,-1.1
2023/01/03 23:20:00,35.6,-1.0
2023/01/03 23:30:00,35.5,-1.2
2023/01/03 23:40:00,35.5,-1.5
2023/01/03 23:50:00,35.4,-1.5
